GFSMA_250_rhum_021.txt.gz
RH
89 84 83 79 45 22 22 31 40 41 38 34 34 34 31 30 29 30 32 31 31 26 25 27 26 31 30 44 50 62 70 59 64 87 100 100 100 97 100 96 85 78 100
96 97 93 30 22 21 26 36 42 48 48 43 40 37 35 33 32 33 33 36 35 32 27 26 29 28 28 27 28 42 42 74 74 67 78 75 91 88 87 73 73 100 100
80 59 35 22 20 18 22 28 38 40 46 47 45 45 44 41 38 36 34 36 37 38 35 34 32 33 30 28 26 24 26 34 37 50 74 74 54 50 60 48 58 75 100
32 24 19 19 20 29 40 42 45 43 39 40 42 43 44 45 46 44 44 43 40 36 37 36 37 35 36 35 36 32 28 24 33 34 60 76 60 50 38 37 57 72 100
18 20 21 21 22 47 45 41 39 36 34 36 38 45 53 57 52 50 50 54 52 53 49 41 37 35 33 37 40 40 40 37 29 37 40 52 100 97 65 55 79 100 100
18 19 20 21 42 57 57 49 44 42 41 43 46 50 55 54 50 48 44 43 45 47 47 50 52 47 44 45 45 46 47 46 43 33 38 41 58 100 100 100 99 100 100
19 28 47 48 49 46 39 36 38 40 42 40 38 37 39 46 52 59 64 63 64 60 55 50 49 56 61 60 58 57 56 52 50 45 39 41 45 56 99 100 100 100 100
50 47 36 30 31 32 34 36 36 34 33 32 31 32 33 41 48 50 46 49 52 60 66 65 66 69 72 70 67 66 68 71 63 56 51 43 39 45 47 96 100 100 100
34 31 32 36 36 32 29 28 28 29 33 38 38 36 37 40 39 46 52 57 59 59 63 66 78 82 86 92 84 81 77 68 75 73 64 55 46 40 42 48 92 100 100
41 38 33 28 28 33 39 44 46 48 49 47 49 52 57 58 59 56 61 64 58 54 51 53 54 61 68 77 85 77 73 92 80 76 76 73 55 56 41 42 49 92 100
42 38 42 49 50 56 50 42 43 44 46 51 52 49 42 36 30 21 18 32 43 56 42 33 29 27 30 33 42 56 65 67 88 82 70 76 72 64 50 42 44 51 81
52 56 61 62 56 49 49 45 43 43 42 37 32 28 22 17 14 10 8 7 8 10 14 16 16 16 15 17 22 28 34 46 56 59 60 60 70 65 58 56 47 50 61
66 64 63 58 49 46 41 40 36 34 32 23 21 16 10 7 6 6 6 6 6 6 7 8 8 9 9 11 11 12 14 16 24 33 41 46 51 71 63 53 56 46 50
58 55 46 46 42 42 36 36 35 27 24 17 12 8 6 6 6 5 4 4 4 3 4 6 7 7 7 8 8 9 9 11 13 17 26 30 36 42 65 48 53 49 42
49 49 48 45 39 39 38 29 23 18 12 8 7 6 5 4 4 3 3 3 2 3 3 4 4 4 4 6 7 8 8 9 10 12 16 19 25 31 40 44 37 45 50
52 44 40 43 39 34 26 19 12 8 6 6 6 4 4 3 3 3 3 2 2 2 3 3 3 3 3 3 4 5 7 8 8 10 11 13 17 23 30 34 32 29 39
42 45 46 39 29 22 14 9 6 6 6 4 4 3 3 3 3 3 3 3 3 2 3 3 2 2 2 3 3 3 4 5 7 8 9 10 11 14 19 24 30 27 27
51 43 34 21 17 10 7 6 6 5 4 3 3 3 3 3 3 3 3 3 3 3 3 3 3 3 2 2 2 3 3 4 4 6 7 8 10 11 12 16 20 26 24
34 25 19 16 9 7 6 5 4 3 3 3 3 3 3 3 4 4 3 3 3 3 3 3 3 3 3 2 2 3 3 3 4 4 4 6 8 9 10 11 15 19 21
19 16 12 8 7 6 5 4 4 4 3 3 4 4 4 3 3 3 3 3 3 3 3 3 3 3 3 3 3 3 3 3 3 4 4 5 5 6 8 9 11 13 15
13 10 8 7 6 5 4 4 4 4 4 4 4 4 4 3 3 3 4 3 3 3 3 3 3 3 3 3 3 3 4 4 4 3 3 4 5 5 6 8 10 11 10
11 9 8 6 5 4 4 4 4 4 4 4 4 4 3 3 3 3 3 3 3 3 3 2 3 3 4 3 3 4 4 4 4 3 3 3 4 5 5 6 7 9 9
9 8 7 5 4 4 5 5 4 5 5 5 5 4 4 3 3 3 2 2 2 3 3 2 3 3 3 3 3 4 4 4 4 4 4 3 3 3 5 5 6 7 7
8 7 5 5 5 5 5 6 5 5 5 4 4 4 4 3 3 3 3 3 3 3 3 2 3 3 3 4 4 4 4 4 4 4 4 4 3 3 3 5 6 6 6
7 6 5 5 5 5 6 6 5 4 4 4 4 4 3 2 2 2 2 2 3 3 3 3 3 3 3 3 4 4 4 5 4 4 4 4 4 3 3 4 5 6 6
6 5 5 5 5 6 6 6 5 5 5 4 3 3 3 3 3 2 2 2 2 2 3 3 3 3 4 4 4 4 5 5 5 4 4 4 4 4 4 4 4 4 6

GFSMA_250_rhum_024.txt.gz
RH
70 39 40 56 71 75 86 63 58 31 21 19 23 26 31 33 34 34 34 35 38 38 33 28 28 29 29 24 23 33 60 95 100 100 100 100 100 100 100 100 100 100 100
60 74 76 93 83 54 51 49 42 22 20 20 39 43 40 40 38 36 34 33 31 32 33 37 33 31 30 28 25 24 29 50 75 86 96 92 94 100 95 91 100 100 100
74 84 58 31 28 21 21 21 20 20 20 21 48 54 46 42 40 36 35 37 38 38 37 37 39 42 38 31 28 25 24 28 37 51 68 79 80 79 85 100 100 100 100
83 34 23 20 21 20 19 19 19 19 26 37 48 59 56 52 50 48 46 44 44 44 49 50 47 46 44 43 35 27 28 25 26 28 36 46 63 78 85 100 100 100 100
44 19 18 19 18 18 18 18 22 36 45 51 49 48 46 50 54 56 58 59 53 52 50 52 58 57 50 46 42 39 32 28 29 26 28 26 34 54 74 82 91 93 100
19 18 18 17 17 18 24 39 50 50 45 39 39 42 44 44 43 42 43 45 47 52 55 58 60 58 62 65 54 44 39 36 33 34 32 33 31 31 36 60 79 93 93
18 17 17 20 26 38 46 50 50 46 42 40 40 44 46 43 42 46 47 46 49 52 56 59 61 67 78 79 76 68 58 49 41 39 41 40 36 41 32 34 46 72 98
22 27 36 46 47 44 40 35 33 36 38 37 36 36 35 36 39 38 41 40 42 46 49 52 54 56 67 82 99 96 87 71 60 48 44 47 44 40 44 40 34 44 83
53 55 51 47 44 39 33 32 32 33 33 32 32 37 41 42 41 43 45 48 50 48 48 44 46 49 54 62 74 86 100 100 92 74 61 52 52 48 43 46 40 35 44
44 41 40 36 30 30 33 33 32 34 45 51 57 57 51 44 44 42 45 48 50 46 41 44 38 30 30 36 41 54 67 76 84 94 83 73 61 56 52 49 46 42 35
38 40 39 36 36 38 39 50 64 64 57 50 47 44 40 37 31 25 20 25 20 20 22 24 21 20 16 17 22 29 32 36 51 61 80 84 82 77 62 58 54 50 51
44 43 48 47 57 75 71 62 55 48 42 39 34 31 27 22 21 15 9 6 6 7 7 8 10 10 11 9 10 11 16 27 35 40 47 60 73 87 81 67 70 61 53
58 64 74 74 66 60 54 48 43 37 34 31 26 22 18 13 9 7 6 5 5 5 5 6 6 6 6 7 7 7 7 8 14 24 33 38 49 62 84 80 70 80 66
78 68 62 60 55 48 45 40 31 27 23 20 16 13 10 7 6 5 4 4 3 3 3 3 4 3 3 4 5 6 6 6 7 9 16 26 34 43 53 66 69 71 87
61 63 55 52 48 41 34 25 21 17 14 10 8 6 6 5 5 4 3 2 2 2 2 2 3 2 2 3 3 4 5 6 6 6 8 11 18 24 36 39 50 63 65
49 50 44 40 36 28 22 18 12 10 8 6 6 5 5 4 3 3 3 2 2 2 3 3 2 3 2 2 3 3 3 4 4 6 6 7 9 12 17 27 36 42 49
50 43 36 33 27 20 15 11 9 7 6 5 5 4 4 3 3 3 3 3 2 2 3 3 3 2 2 2 2 3 3 3 3 4 5 6 7 8 10 13 20 33 41
49 43 35 25 19 14 11 9 7 6 6 5 4 3 3 3 3 3 3 3 3 2 2 3 3 3 3 2 3 2 3 3 2 3 4 4 6 7 7 8 12 18 24
45 36 25 18 14 10 8 7 6 5 4 4 3 3 3 3 3 3 3 3 3 3 3 3 3 3 3 2 3 3 2 3 3 2 3 4 4 6 7 7 8 11 15
43 31 20 14 10 9 7 6 5 4 4 4 4 4 4 4 4 3 3 3 3 3 3 3 3 3 3 2 3 3 3 3 3 3 2 3 3 4 5 6 7 8 10
38 27 15 11 10 8 6 5 5 4 4 4 4 4 4 4 4 4 3 3 3 2 2 2 2 2 3 3 3 3 3 3 3 3 2 2 2 3 4 4 6 8 9
23 16 11 10 8 7 6 5 5 4 4 5 6 4 4 4 4 3 3 3 3 3 2 2 2 2 3 3 3 3 3 4 4 3 3 3 3 2 3 4 4 6 8
16 11 10 8 7 6 5 5 4 4 5 5 5 4 4 4 4 3 3 2 2 2 2 3 3 3 2 2 3 3 3 4 4 4 3 3 3 3 3 3 4 4 6
12 10 9 7 6 6 5 5 5 5 5 5 4 4 4 3 3 3 3 3 2 2 2 2 2 3 3 2 3 3 3 4 4 4 4 3 3 3 3 3 3 4 5
11 10 7 6 6 5 5 5 6 6 4 4 4 3 3 3 3 3 4 4 3 3 2 2 2 3 3 3 3 3 3 4 4 4 4 4 3 3 3 3 3 4 4
11 8 6 6 5 5 5 6 6 6 4 4 3 3 3 4 4 4 4 4 3 3 2 2 2 2 3 3 3 3 4 4 4 4 4 4 4 4 4 4 4 4 4

GFSMA_250_rhum_027.txt.gz
RH
90 98 79 79 66 64 66 62 46 34 21 19 20 19 19 19 18 21 24 37 40 38 36 33 30 31 31 31 32 30 27 25 36 85 52 96 100 100 98 100 100 100 100
56 54 53 53 48 52 64 71 35 19 19 20 20 18 18 18 20 28 36 40 45 49 44 41 35 33 32 31 30 31 32 28 24 34 90 59 81 100 100 100 100 100 100
59 50 66 70 71 74 68 31 18 18 19 18 18 18 18 26 38 42 43 39 40 42 38 39 41 39 40 40 34 32 31 33 29 25 34 95 100 98 82 100 100 100 81
100 98 82 79 78 72 56 18 18 18 17 18 21 32 48 50 48 47 45 39 37 38 40 43 45 45 42 42 45 42 36 33 31 28 27 32 64 99 100 100 98 100 100
100 78 69 76 56 54 35 20 21 26 34 42 45 46 48 46 46 47 48 46 47 49 52 53 53 51 49 46 44 46 47 43 37 30 26 27 30 49 87 100 100 100 100
97 76 65 35 23 22 23 32 48 49 51 54 56 54 50 46 45 46 46 44 44 45 47 50 52 53 54 56 56 53 50 49 48 41 34 28 26 29 38 52 100 100 100
68 27 23 23 29 38 57 57 56 52 48 46 44 42 44 54 62 68 72 74 77 83 84 76 70 67 63 57 56 58 53 53 53 49 45 37 32 26 28 31 36 74 100
29 37 46 55 59 59 56 50 47 48 51 53 52 48 45 42 42 41 42 42 44 43 43 44 49 53 54 60 61 57 55 56 53 53 50 50 42 37 27 27 29 32 44
54 52 51 52 54 52 49 48 44 43 43 41 40 38 36 34 31 37 40 43 42 41 42 40 37 35 36 38 43 48 52 52 51 55 53 48 52 47 40 31 29 33 30
52 52 49 44 42 42 42 43 45 50 54 56 57 57 56 51 44 39 41 40 45 45 37 32 29 28 25 24 28 33 40 44 44 47 51 53 47 49 51 44 36 31 37
37 35 34 36 42 48 57 66 61 57 54 49 45 43 39 36 36 34 29 28 23 21 20 17 15 14 13 14 15 17 21 26 33 35 37 44 43 43 49 48 46 40 34
31 42 50 55 62 63 59 56 54 49 44 38 36 34 30 26 22 16 10 8 8 10 8 7 8 8 7 7 7 9 10 11 15 24 28 29 35 37 36 47 48 44 44
49 58 67 62 60 62 64 55 44 42 38 31 26 21 17 15 12 9 7 6 5 5 5 5 4 5 5 5 5 5 6 6 8 8 16 26 27 31 28 29 43 45 42
69 61 54 57 61 58 49 41 35 29 22 16 13 12 10 8 6 5 4 4 4 4 4 4 3 3 3 3 3 4 4 5 5 5 6 10 18 25 31 31 25 35 43
52 57 65 70 66 55 43 34 22 17 15 12 10 8 6 6 5 5 4 3 3 3 3 3 2 2 2 2 2 2 2 3 4 5 5 5 7 14 20 26 31 27 29
68 69 78 76 72 52 32 24 18 13 10 8 7 6 6 5 4 3 3 3 2 3 4 3 3 2 2 2 2 2 2 2 2 3 4 4 5 6 11 15 24 31 28
73 86 72 66 56 42 26 17 12 9 8 6 5 5 4 4 3 3 3 3 3 3 3 4 3 3 2 2 2 2 2 3 2 2 3 3 4 5 6 9 13 23 32
75 61 62 64 46 29 17 13 10 8 6 5 5 4 4 4 3 3 3 3 3 3 4 4 4 3 3 2 2 2 3 2 2 2 3 3 3 3 5 6 8 13 20
67 82 65 54 41 24 14 11 9 6 5 4 4 4 4 4 4 4 4 3 3 2 3 3 3 3 3 2 2 2 3 3 3 3 3 3 3 3 3 4 6 7 12
86 62 51 35 24 16 11 9 7 5 5 4 4 4 4 4 5 4 3 3 3 3 2 2 2 3 3 3 2 3 3 3 3 3 3 3 3 3 3 3 4 6 7
60 53 33 25 18 12 10 7 5 5 5 4 4 4 4 5 4 3 3 3 3 3 3 2 2 3 3 2 2 2 3 3 3 3 3 3 3 3 2 2 3 4 6
62 40 21 17 11 10 7 6 5 5 4 4 4 5 5 4 3 3 3 3 3 3 2 2 2 2 2 3 2 2 2 3 3 3 3 3 3 3 3 2 2 3 4
36 22 16 11 10 8 6 5 5 4 4 4 5 6 4 3 3 3 3 3 3 2 2 3 2 2 2 2 2 2 2 3 3 3 4 3 3 3 3 3 2 2 3
18 15 11 10 9 6 6 5 4 4 4 4 6 6 4 3 3 3 3 3 3 3 3 3 3 2 2 2 2 2 2 2 2 3 3 3 3 3 3 3 3 2 3
14 12 10 10 7 6 5 5 5 5 5 6 5 4 4 4 4 4 4 3 4 4 4 3 3 2 2 2 2 3 3 2 2 3 3 3 4 4 4 4 4 3 3
12 10 10 8 6 6 5 6 6 5 6 6 4 4 4 4 4 4 4 4 4 4 4 3 3 2 2 2 2 2 3 3 3 4 4 4 4 5 4 4 4 4 3

GFSMA_250_rhum_030.txt.gz
RH
78 68 58 45 38 36 36 34 42 38 41 36 37 36 24 16 17 17 17 18 17 17 21 29 30 32 36 36 33 30 29 28 29 26 27 33 72 100 100 100 100 100 60
60 43 34 32 34 56 60 68 71 66 54 57 40 22 21 19 17 18 18 18 20 24 32 38 43 47 46 47 42 37 30 28 28 27 28 25 48 86 100 100 99 100 96
98 90 81 79 100 100 100 100 88 86 73 40 22 20 20 20 22 29 33 36 36 40 37 37 39 42 50 51 41 34 39 38 36 29 27 28 27 67 95 100 100 100 100
100 100 100 100 100 100 100 100 100 85 33 21 23 28 32 35 42 44 46 48 47 46 47 45 40 40 38 37 43 42 39 37 38 34 30 28 26 28 87 98 100 93 100
100 100 100 100 100 100 100 100 81 33 34 40 47 50 48 47 48 50 50 51 53 52 51 49 53 49 50 48 46 45 46 48 45 43 40 33 29 26 27 91 100 100 100
100 100 100 100 100 100 96 76 42 45 45 44 49 50 51 52 53 50 51 51 51 51 54 55 54 52 50 51 52 50 50 50 50 45 42 41 38 30 26 28 86 100 99
96 94 100 91 54 43 45 46 46 52 55 52 49 54 65 74 86 87 88 83 83 88 90 89 78 60 53 54 52 50 50 48 49 49 48 43 40 37 30 26 27 80 100
98 45 49 47 49 50 50 47 41 42 48 57 61 61 59 58 56 53 53 52 46 45 45 49 60 72 84 86 90 83 62 52 46 50 54 50 48 41 38 30 26 30 63
43 42 46 52 51 47 44 41 48 58 56 53 50 51 51 49 47 44 39 36 35 35 34 31 27 28 31 43 62 66 65 70 60 53 51 58 50 48 45 40 30 27 30
46 43 39 37 36 38 44 51 49 52 53 57 60 60 55 51 42 39 39 38 38 40 34 28 23 20 18 19 20 23 26 36 46 40 43 45 48 47 46 42 39 32 28
31 32 35 40 45 46 49 55 55 57 65 70 68 60 53 43 41 32 24 20 20 20 19 19 12 10 9 9 10 12 15 18 23 26 30 29 33 41 43 38 40 40 32
37 44 50 54 57 58 54 58 75 77 72 63 57 47 39 28 20 16 13 11 10 10 8 8 8 8 6 6 6 6 8 9 11 16 25 29 28 28 32 37 35 36 42
47 53 57 60 54 54 69 70 61 57 52 40 33 26 22 16 12 10 8 7 6 6 5 5 5 4 5 4 4 4 4 4 5 7 9 15 21 25 29 28 32 33 34
59 60 55 54 70 66 54 52 52 47 36 27 20 17 14 10 8 6 5 5 5 5 5 4 4 3 3 3 4 3 4 4 4 4 5 7 10 17 19 26 28 30 34
55 59 60 70 60 59 62 60 53 40 28 21 16 12 9 7 6 6 5 4 4 4 4 4 3 2 2 2 3 3 2 3 3 4 4 4 5 8 14 17 22 29 32
55 57 62 68 75 72 70 58 43 28 17 14 11 9 8 6 5 4 4 3 3 3 4 3 3 3 2 2 2 3 3 2 2 2 3 4 4 4 6 11 15 20 25
62 65 78 80 63 53 48 40 30 17 14 11 10 8 6 4 4 4 3 3 3 3 3 4 4 4 3 2 2 2 3 2 2 2 2 2 3 4 4 5 9 12 18
70 83 84 62 36 31 27 21 17 14 11 10 8 5 4 4 4 3 3 3 3 4 4 4 3 3 3 3 2 2 3 3 2 2 3 2 2 2 3 4 5 7 12
82 92 74 58 39 36 25 17 14 12 10 8 5 5 4 4 4 3 3 4 4 4 3 3 3 3 3 3 3 2 2 3 3 2 3 2 2 2 2 3 4 5 6
92 86 72 44 32 26 19 14 11 10 8 5 5 4 4 4 4 4 4 4 4 3 2 2 2 3 3 3 3 2 2 2 3 3 2 2 2 2 2 2 2 3 5
87 74 51 29 22 17 14 11 9 8 6 5 4 5 5 5 5 5 5 4 3 3 2 2 2 2 2 2 2 2 2 2 2 2 2 3 2 2 2 2 2 2 3
72 61 39 24 17 14 12 9 9 7 5 5 5 6 5 5 5 5 4 3 3 3 3 2 2 2 2 2 2 2 2 2 2 2 3 3 3 3 2 2 3 2 3
44 42 32 18 14 11 9 9 7 6 5 5 6 6 5 5 5 4 3 3 3 3 3 3 2 2 2 3 2 2 2 2 2 2 2 3 3 3 2 3 3 3 3
34 27 23 14 12 9 9 8 6 5 5 6 6 6 6 5 4 4 4 4 3 3 3 3 3 3 3 3 2 2 2 2 2 2 2 2 2 3 3 3 3 3 3
33 20 15 12 10 8 8 8 6 5 6 6 6 6 6 5 4 5 4 4 4 3 3 3 3 3 3 3 2 2 2 2 2 3 2 2 3 3 3 3 3 3 3
20 14 12 11 9 8 8 7 6 6 6 6 6 6 5 4 5 4 4 4 4 3 3 4 4 4 3 3 2 2 2 2 2 3 3 3 3 3 4 3 3 4 4

GFSMA_250_rhum_036.txt.gz
RH
96 89 87 68 65 55 46 42 34 31 23 42 52 94 100 90 100 98 63 68 83 61 42 24 22 26 24 17 16 16 16 16 16 19 19 19 20 18 83 100 100 100 100
91 74 62 51 52 50 36 32 28 38 40 72 88 100 100 100 50 73 67 63 73 56 30 31 28 26 26 27 22 17 16 16 16 17 22 19 19 22 18 45 100 100 100
78 72 58 66 48 50 63 57 80 100 100 100 95 64 67 68 75 81 84 64 39 35 31 36 35 26 24 27 30 30 27 20 18 20 21 26 24 25 23 19 74 100 100
60 69 58 69 67 69 94 100 100 97 79 91 100 96 99 98 83 46 33 28 26 29 33 35 34 36 30 25 25 30 34 30 36 29 31 30 28 28 30 23 20 93 100
52 49 39 52 60 62 90 99 100 100 100 100 66 69 81 80 46 40 43 55 57 56 51 47 48 55 56 51 41 35 32 31 36 38 35 41 35 32 31 27 23 54 89
26 40 49 45 57 77 87 96 88 86 65 42 44 40 39 38 40 50 60 62 65 63 65 69 69 69 76 69 48 41 44 37 32 35 36 40 38 39 31 31 26 23 90
39 42 42 42 45 36 36 38 33 29 28 29 30 36 46 56 60 56 50 47 45 49 52 51 49 48 48 54 62 66 54 38 35 34 29 31 38 38 41 34 29 24 37
28 26 26 29 32 34 34 33 32 32 34 39 46 51 52 62 63 60 56 53 51 49 47 44 44 43 40 38 36 33 30 37 44 33 30 26 25 30 34 34 35 25 22
36 38 41 45 45 46 52 55 49 44 44 49 56 59 63 57 52 53 51 48 46 42 42 40 35 32 31 31 31 30 26 25 28 31 30 27 26 24 21 26 28 30 21
46 47 55 66 68 63 52 48 48 48 50 53 52 54 56 53 47 46 42 43 42 42 43 39 33 24 18 17 16 16 16 18 19 23 32 34 26 25 24 20 21 22 25
69 69 75 77 74 75 58 52 50 51 54 59 60 52 46 42 38 40 40 44 42 34 22 18 18 14 12 10 9 8 8 10 11 12 13 14 23 25 26 25 22 18 20
66 63 66 63 58 49 49 48 49 52 52 49 46 45 41 41 41 40 34 26 22 21 16 13 10 9 8 8 7 6 6 6 6 6 7 8 9 14 20 24 29 24 17
84 80 77 67 62 56 51 50 52 55 55 56 50 45 44 36 28 22 17 14 12 10 9 8 6 5 4 4 5 5 4 4 4 4 4 5 5 6 10 13 21 30 26
71 69 67 64 57 57 64 65 64 59 51 50 46 47 37 25 21 14 11 9 8 8 7 5 4 4 4 4 3 3 3 3 3 3 3 4 4 4 5 8 11 20 30
77 74 66 64 66 69 65 58 57 58 51 54 55 46 30 28 20 13 9 7 5 5 6 5 4 3 3 3 3 3 3 2 2 2 2 3 3 3 4 4 7 10 20
79 71 64 72 80 78 70 66 58 57 64 57 46 34 25 19 16 10 8 6 5 4 6 4 4 3 3 3 3 3 3 3 3 2 2 2 3 2 3 4 4 6 10
82 75 77 82 85 76 63 62 66 70 55 42 32 22 19 14 11 9 7 5 5 5 4 4 4 4 4 4 4 3 3 3 3 3 2 2 2 2 2 3 4 4 6
75 74 81 79 72 68 72 80 73 52 42 31 23 19 14 11 9 7 6 6 5 4 4 4 4 4 4 4 4 4 4 3 3 3 3 3 2 2 2 2 3 4 4
70 85 88 80 72 72 86 77 51 42 37 28 20 14 13 10 8 6 6 5 4 4 4 4 5 4 4 4 4 3 3 2 2 2 2 2 3 3 2 2 2 3 4
84 85 84 78 79 86 74 47 34 31 24 20 14 11 9 8 7 6 6 4 4 4 4 4 4 4 3 2 2 2 2 2 2 2 2 2 2 2 3 2 2 2 3
80 77 77 88 82 64 56 44 37 30 17 14 12 10 8 7 7 6 4 4 5 4 4 4 3 3 2 2 2 2 2 2 2 2 2 2 2 2 2 2 2 3 2
73 86 81 78 66 47 39 31 26 20 14 12 10 9 8 7 7 5 5 5 4 4 4 3 3 3 3 3 3 3 3 3 2 2 2 2 2 2 2 2 2 3 2
74 73 69 56 46 49 53 33 25 16 11 9 9 8 8 7 6 5 5 6 5 5 4 4 4 3 3 3 3 2 2 2 2 2 2 2 2 2 2 2 2 2 3
77 66 56 58 54 54 35 26 14 11 12 10 9 8 7 6 6 6 6 5 5 4 4 4 4 4 3 3 3 3 3 3 3 3 2 2 2 2 2 2 2 2 2
68 55 44 34 28 23 19 11 11 11 9 9 8 8 7 5 6 7 7 6 5 5 5 5 4 4 3 3 3 3 3 3 3 3 3 3 2 2 2 2 2 2 2
56 48 47 36 25 16 14 12 10 11 11 9 8 8 6 6 6 6 6 6 5 6 5 4 4 4 3 3 3 3 4 4 3 3 2 2 2 2 2 2 2 2 2

GFSMA_250_rhum_042.txt.gz
RH
98 100 88 93 100 99 100 100 94 88 81 73 58 47 38 33 29 26 26 28 28 26 26 29 44 65 72 58 68 43 47 28 30 22 24 26 17 15 19 18 22 96 95
100 100 98 96 98 98 94 91 89 79 66 55 42 30 28 26 23 24 21 21 20 21 23 24 24 24 26 27 27 28 25 24 25 22 20 22 24 16 16 18 21 52 100
99 100 100 91 95 86 80 75 77 86 63 52 26 22 22 23 24 29 32 30 29 33 37 40 37 29 25 26 24 24 25 27 27 26 23 20 21 21 14 17 20 34 100
98 92 90 80 74 77 82 88 71 57 41 24 26 30 31 34 35 34 35 38 42 42 44 53 63 65 55 46 42 35 34 34 31 34 33 27 23 24 17 14 17 23 92
98 98 89 80 80 76 48 30 27 30 34 36 39 42 43 42 41 42 46 48 48 51 54 55 60 65 68 75 81 78 65 47 37 32 31 35 31 26 23 15 15 18 24
76 96 93 76 60 29 29 27 31 34 37 39 40 44 48 51 56 55 56 56 62 62 60 60 61 61 62 62 60 62 66 66 60 44 45 32 31 33 28 21 15 16 19
100 88 76 55 26 26 29 32 34 34 37 39 43 51 56 61 57 55 58 57 56 53 51 52 52 52 52 52 52 51 47 46 43 42 38 37 41 32 28 29 22 15 16
83 60 38 26 25 29 31 31 29 30 38 43 50 54 59 59 53 53 54 57 58 54 53 55 57 55 52 48 46 44 42 38 36 37 35 33 29 32 34 31 27 24 15
42 28 27 26 26 30 30 32 30 35 43 45 46 53 53 55 54 61 64 65 64 71 76 72 67 62 56 53 47 39 35 33 30 28 26 25 25 24 31 32 31 28 25
30 27 25 25 28 28 30 33 36 50 49 45 44 58 62 60 58 58 66 70 70 69 70 69 70 59 40 32 25 21 18 17 15 15 13 11 12 15 16 23 26 27 28
28 25 24 25 27 27 41 46 37 44 52 56 49 55 67 73 70 76 72 62 59 61 58 54 50 39 29 15 12 11 10 8 8 8 8 8 8 10 10 11 16 23 24
30 30 32 31 34 41 40 39 46 58 60 51 53 70 74 79 80 67 57 62 65 60 48 38 26 19 13 9 8 7 6 6 6 5 5 6 6 6 7 7 9 14 19
33 34 33 28 29 37 39 44 55 58 56 59 71 77 77 72 61 56 56 62 60 54 43 31 18 13 9 7 6 6 5 4 4 4 4 4 4 4 4 5 6 8 12
36 32 29 34 37 39 47 56 55 58 66 71 80 80 68 62 60 58 61 61 49 35 27 17 12 10 7 5 4 4 4 4 3 3 3 3 3 3 3 4 5 6 9
38 37 39 42 49 54 60 57 61 70 72 79 73 69 62 61 66 67 64 50 37 21 19 12 9 6 5 4 4 4 4 4 3 3 3 3 3 3 3 3 3 4 6
39 46 51 55 60 63 61 69 71 72 76 76 68 61 66 68 62 53 40 29 21 14 9 8 7 6 5 4 4 4 4 3 3 3 3 3 3 3 3 3 3 4 4
57 60 66 64 64 65 71 70 74 80 75 64 63 59 57 56 41 28 22 16 13 10 8 7 6 5 5 5 4 4 3 3 3 3 3 3 3 3 3 3 3 3 3
64 60 58 64 69 68 72 81 81 71 59 60 58 46 42 31 26 21 15 10 8 7 6 7 6 5 4 5 4 4 4 4 4 3 3 3 3 2 3 3 3 3 3
58 62 68 67 69 76 82 78 62 54 59 59 50 37 30 27 21 15 11 9 8 7 6 6 6 5 5 4 4 4 4 4 3 3 2 2 3 2 3 3 3 3 3
69 73 67 75 80 79 70 58 53 57 56 44 33 26 24 21 14 11 9 9 9 8 7 6 5 6 5 4 4 4 4 3 2 3 2 2 2 2 2 3 3 3 3
69 67 77 78 71 60 54 59 57 50 41 33 27 23 19 15 12 10 9 9 9 8 6 6 6 5 4 4 5 4 4 3 3 3 2 2 2 2 2 2 2 3 3
70 76 71 62 61 57 60 56 43 38 29 24 20 16 12 10 9 9 8 8 8 7 7 6 5 4 4 5 4 4 3 4 3 4 2 2 2 2 2 2 2 2 2
68 66 65 58 62 59 46 38 36 30 22 16 13 11 10 9 9 9 7 7 7 7 8 6 4 5 5 4 4 3 4 4 4 3 2 2 2 2 2 2 2 2 2
66 63 64 64 51 44 37 30 22 18 12 11 10 9 9 8 8 8 7 7 7 7 5 5 5 6 5 4 4 4 4 3 3 3 2 2 2 2 2 2 2 2 2
79 69 66 56 40 32 27 18 13 10 9 10 9 8 8 8 7 8 7 7 6 5 4 5 6 6 5 5 4 5 5 3 3 2 2 2 3 2 2 2 2 2 2
70 69 58 39 28 24 17 11 9 9 8 9 8 8 7 7 8 6 6 5 5 4 5 6 7 5 5 5 5 7 6 4 3 3 3 3 3 3 3 2 2 2 2

GFSMA_250_rhum_045.txt.gz
RH
100 100 96 98 100 100 99 93 94 86 80 76 90 81 71 54 37 30 29 29 29 27 29 30 31 32 32 30 27 28 31 30 25 26 24 22 21 23 25 31 28 20 18
100 100 96 77 99 86 88 94 75 82 96 99 85 67 54 33 32 30 31 31 34 33 35 44 51 49 42 39 39 34 31 31 29 24 22 22 22 20 21 26 31 22 17
100 94 100 100 100 90 91 85 91 97 98 87 62 43 33 30 31 32 32 30 32 36 44 51 55 57 56 56 54 49 40 37 35 34 33 30 25 23 25 22 24 26 17
98 100 96 96 93 93 96 98 100 89 80 55 40 29 31 30 29 31 29 30 36 44 51 54 56 59 62 64 64 66 66 60 55 48 46 43 38 32 28 26 24 23 21
100 98 95 95 83 100 100 96 86 68 51 34 30 32 31 29 27 26 27 32 37 44 48 49 49 50 52 54 55 56 58 64 69 68 65 57 47 47 38 32 28 25 24
100 98 98 99 99 98 73 75 69 53 29 28 31 29 28 28 25 25 30 34 40 40 48 51 54 56 57 62 62 61 59 58 59 60 59 56 54 55 45 40 32 30 26
98 100 90 82 72 81 84 78 54 30 30 30 29 27 26 26 27 33 41 46 41 41 47 58 61 62 60 62 63 61 55 52 54 52 50 47 45 40 45 44 39 30 31
95 87 89 90 82 78 63 39 31 30 28 27 27 25 29 35 40 48 53 55 54 55 62 63 67 68 63 59 55 51 49 54 52 48 44 40 36 31 28 33 38 31 28
76 65 56 52 49 44 36 31 30 28 26 27 25 28 34 43 46 52 55 59 64 70 76 79 71 64 58 54 53 52 51 50 44 34 27 23 19 17 19 24 28 33 27
39 33 45 51 61 42 32 30 29 27 26 26 29 36 46 44 48 54 56 63 76 84 83 75 66 57 56 58 55 48 43 33 19 14 12 11 11 10 11 15 17 25 34
33 34 33 33 34 35 33 30 32 36 40 43 49 50 51 58 54 57 66 82 87 84 70 61 57 57 56 48 40 35 22 12 10 9 8 8 7 6 6 8 8 10 19
35 39 38 36 34 34 37 43 46 50 53 53 53 58 58 58 58 63 78 83 66 58 60 60 51 47 41 32 24 16 11 7 6 5 5 5 5 5 5 5 6 7 8
40 39 39 42 45 47 50 50 52 51 51 53 48 48 47 50 60 76 72 60 57 62 61 55 36 28 24 20 16 10 7 5 4 4 3 3 3 3 3 4 4 5 6
46 46 46 46 46 43 46 52 51 48 48 48 50 50 58 68 71 65 56 49 53 59 46 39 29 25 18 12 9 7 6 5 4 4 4 3 3 3 3 3 3 4 5
47 44 42 47 50 59 58 56 56 56 54 51 57 68 73 65 59 53 52 53 46 40 42 34 26 18 11 9 8 6 5 5 5 4 4 3 3 3 3 2 2 3 4
51 63 71 63 57 56 60 62 56 53 60 70 72 68 62 57 56 52 45 39 35 28 24 18 15 11 9 8 7 6 5 4 4 4 4 4 3 3 3 3 3 3 3
72 63 59 60 66 66 70 63 60 69 76 72 63 59 62 53 47 43 39 31 23 16 12 10 10 9 8 6 6 6 5 5 4 4 3 3 3 3 3 3 2 2 3
64 66 71 71 74 76 69 70 83 83 71 63 67 64 48 40 36 32 24 18 12 9 8 8 8 8 7 6 6 6 4 4 4 3 3 3 3 3 3 3 3 3 3
64 72 70 71 78 78 81 88 80 66 60 63 60 46 36 31 26 20 13 10 8 8 7 7 7 7 6 6 6 5 5 4 3 4 4 4 3 3 3 3 3 3 3
78 76 79 89 86 85 83 73 68 58 52 46 36 31 26 22 15 11 9 8 8 7 7 7 6 6 6 5 6 5 4 4 4 4 4 3 3 2 2 2 2 2 3
76 86 93 85 77 77 68 62 54 58 46 33 26 23 19 13 10 9 8 7 7 7 7 6 6 6 5 5 5 4 4 4 4 4 3 3 3 3 3 3 2 2 2
87 94 79 76 74 66 63 58 60 52 38 29 25 17 12 9 9 8 7 7 7 7 6 6 6 6 4 4 4 4 5 5 4 5 3 3 5 4 3 3 3 2 2
90 82 86 82 81 84 78 66 48 39 34 25 16 11 9 8 8 7 6 6 6 6 5 5 5 4 4 4 4 4 5 4 4 4 3 4 4 3 3 3 2 2 2
88 79 80 87 92 77 62 58 45 30 22 15 10 9 8 8 6 5 5 4 4 4 4 4 4 4 4 4 5 5 4 4 4 4 4 3 3 2 2 2 2 2 2
81 90 94 89 75 73 73 48 28 20 16 11 9 8 7 6 5 5 5 4 4 4 4 5 5 5 5 6 6 4 4 4 4 4 5 3 2 2 2 2 2 2 2
97 96 84 76 81 70 48 30 21 15 12 9 8 6 5 5 5 5 4 4 4 4 5 5 5 6 6 6 5 4 4 4 4 4 5 2 2 2 2 3 3 2 2

GFSMA_250_rhum_048.txt.gz
RH
100 100 100 98 100 100 100 100 100 90 76 83 91 83 75 70 93 75 60 40 33 30 30 28 27 30 31 34 37 37 33 32 36 39 42 40 35 32 32 26 20 22 30
100 100 100 89 82 100 95 98 96 91 94 98 88 80 78 74 75 55 44 36 31 30 29 27 27 30 33 34 37 40 41 38 37 36 39 40 41 40 37 34 24 21 22
100 100 100 100 100 100 92 80 82 84 77 91 86 70 74 73 58 45 36 32 30 29 27 27 26 28 32 34 36 38 44 45 44 43 42 45 46 42 41 40 36 29 23
94 98 92 93 100 92 88 84 88 94 100 98 91 77 70 72 67 44 31 29 30 29 27 27 27 28 32 34 38 43 52 65 66 66 61 58 57 55 50 42 40 37 32
100 99 94 96 96 84 100 100 89 94 90 84 83 77 67 44 33 31 29 28 27 27 27 25 27 30 34 37 41 45 52 60 72 78 79 79 75 69 63 60 47 42 39
100 100 100 97 91 99 93 89 77 66 65 59 53 46 40 33 32 32 31 31 30 28 27 29 32 37 44 44 48 53 57 60 61 62 61 60 60 56 55 57 59 47 42
100 98 91 99 93 90 84 69 59 51 47 50 52 47 36 37 38 37 38 34 30 30 31 35 41 44 46 48 49 55 58 58 55 57 57 55 53 51 50 49 48 47 40
100 100 94 90 92 76 62 43 35 35 38 38 37 37 36 39 39 41 38 44 46 43 46 48 48 46 46 49 56 59 56 53 48 45 45 46 45 46 50 48 44 39 40
95 87 78 55 48 42 34 35 38 42 40 38 36 38 37 40 44 47 49 49 52 56 51 48 49 52 55 61 57 55 52 48 45 46 41 31 28 34 35 33 30 29 27
73 55 42 34 34 36 38 42 43 43 40 37 38 41 46 47 45 48 57 55 54 53 58 61 63 64 60 58 54 51 45 44 41 34 27 20 16 15 15 14 15 16 18
38 31 37 38 40 41 43 45 42 42 46 40 42 47 47 51 57 55 50 49 51 61 68 66 62 57 54 50 46 43 38 32 24 19 16 13 10 9 8 7 7 7 10
42 44 46 46 42 46 46 45 45 45 44 46 45 50 61 64 58 52 53 63 68 65 60 54 48 44 40 33 29 24 20 19 17 13 11 9 7 6 6 5 5 5 6
47 50 46 46 47 42 42 48 55 59 55 61 66 67 61 59 55 58 66 67 60 52 47 46 42 33 26 21 17 13 11 11 9 8 7 6 5 5 4 4 4 4 4
54 46 45 44 46 50 63 70 70 64 65 63 57 56 62 69 73 74 66 54 43 38 41 33 28 22 18 14 12 10 8 7 6 6 5 5 5 4 4 3 3 3 3
49 41 49 62 63 73 79 78 66 59 61 61 65 71 77 77 71 61 46 36 32 31 32 26 19 15 12 10 9 8 7 6 5 5 5 5 5 4 4 3 3 3 3
45 52 59 66 69 65 66 64 60 67 73 76 74 77 74 69 56 44 40 36 30 23 21 18 12 9 8 7 7 7 6 6 5 5 5 5 4 4 3 3 3 3 3
54 57 60 62 59 63 69 62 62 68 72 75 74 76 72 58 46 40 34 24 20 15 10 9 8 7 7 6 6 6 6 5 5 5 5 4 4 4 4 4 3 3 3
55 67 70 62 63 65 60 60 70 76 77 74 81 65 58 45 38 30 21 16 12 11 9 8 7 7 6 6 6 6 5 5 5 5 5 4 4 4 3 3 3 3 2
64 73 72 76 76 69 73 75 83 82 85 85 72 63 49 43 32 20 16 14 10 9 8 7 7 5 4 4 5 4 4 5 4 4 4 4 3 3 3 3 3 3 3
77 82 82 76 79 75 74 81 83 96 91 75 67 56 53 38 24 18 13 10 8 7 6 5 4 4 4 4 4 4 4 4 4 4 4 3 4 3 4 4 3 3 3
83 80 78 80 75 78 88 100 97 89 73 74 65 52 41 29 21 13 10 8 6 5 5 5 4 4 4 4 4 4 4 3 3 4 3 4 4 4 4 3 3 3 3
84 81 83 78 77 84 90 87 79 77 78 70 50 45 40 22 13 10 8 5 5 4 5 4 4 4 4 4 4 4 4 4 4 4 4 4 4 4 4 3 3 2 3
82 83 84 84 98 95 89 87 83 84 72 56 54 46 26 15 10 8 6 5 5 4 5 5 4 4 4 4 4 4 4 5 5 5 4 3 4 4 4 3 3 3 3
83 80 76 88 95 97 89 92 88 70 62 62 48 29 17 11 7 6 5 5 5 5 6 6 5 5 5 5 5 4 4 5 6 6 4 3 4 4 5 6 4 3 3
88 84 99 99 99 95 97 88 75 66 62 44 29 19 11 8 6 5 5 5 5 6 6 6 6 5 5 5 5 4 5 5 5 5 5 3 4 4 5 5 3 2 2
85 98 95 96 97 100 94 82 70 53 36 25 17 12 7 6 6 5 5 6 6 6 6 6 6 5 5 5 5 5 4 4 5 4 6 4 4 5 4 4 3 2 2